Regional Weather Roundup
Issued by NWS

Home | Current Version | Previous Version | Graphics & Text | Print | Product List | Glossary On
Versions: 1 2 3 4 5 6 7 8 9 10 11 12 13 14 15 16 17 18 19 20 21 22 23 24 25 26 27 28 29 30 31 32 33 34 35 36 37 38 39 40 41 42 43 44 45 46 47 48 49 50
000
ASUS43 KIND 130259
RWRIN

WEATHER ROUNDUP FOR INDIANA
NATIONAL WEATHER SERVICE INDIANAPOLIS IN
1000 PM EST TUE DEC 12 2017

NOTE: "FAIR" INDICATES FEW OR NO CLOUDS BELOW 12,000 FEET WITH NO
SIGNIFICANT WEATHER AND/OR OBSTRUCTIONS TO VISIBILITY.

* - STATION DOES NOT REPORT WEATHER SUCH AS PRECIPITATION OR FOG.

+ - STATION NOT QUALITY CONTROLLED BY THE NATIONAL WEATHER SERVICE.
    USE DATA WITH CAUTION...ESPECIALLY DEWPOINT AND RELATIVE
    HUMIDITY OBSERVATIONS.

INZ001>003-010>013-019-020-130400-
NORTHWEST INDIANA

CITY           SKY/WX    TMP DP  RH WIND       PRES   REMARKS
MONTICELLO +   CLEAR     14   8  75 W5        30.03S WCI   7

$$

LMZ046-743>745-130400-
SOUTHERN LAKE MICHIGAN

STATION/POSITION TIME  TEMP    WIND        PRES    WAVE
                       AIR SEA DIR/SP/G            HT
                 (UTC) (F)     (DEG/KT/KT) (MB)    (FT)
BURNS HARBOR     0240   22     280/ 12/ 16 1015.9F
MICHIGAN CITY    0230   23     280/ 16/ 17   N/A

$$

INZ004-005-014>016-021>024-130400-
NORTH CENTRAL INDIANA

CITY           SKY/WX    TMP DP  RH WIND       PRES   REMARKS
GOSHEN         CLOUDY    19  11  70 W15       29.95F WCI   5
PERU/GRISSOM   CLEAR     17   9  72 W12       29.99F WCI   4
SOUTH BEND     CLOUDY    20  12  71 NW10      29.96F WCI   9

$$

INZ006>009-017-018-025>027-130400-
NORTHEAST INDIANA

CITY           SKY/WX    TMP DP  RH WIND       PRES   REMARKS
FORT WAYNE     CLOUDY    19  10  68 W15       29.96S WCI   5
KENDALLVILLE + FLURRIES  19  13  78 CALM      29.93S

$$

INZ028-029-035-036-043>045-051>053-130400-
WEST CENTRAL INDIANA

CITY           SKY/WX    TMP DP  RH WIND       PRES   REMARKS
LAFAYETTE      PTCLDY    16   7  67 NW5       30.04S WCI   9
TERRE HAUTE    CLEAR     20   8  60 W5        30.06F WCI  13

$$

INZ030>032-037>040-046>048-054>057-064-065-130400-
CENTRAL INDIANA

CITY           SKY/WX    TMP DP  RH WIND       PRES   REMARKS
COLUMBUS       CLEAR     19   7  58 W5        30.04F WCI  13
INDIANAPOLIS   CLEAR     18   7  62 W7        30.02F WCI   9
-EAGLE CREEK   CLEAR     20   7  57 W9        30.02S WCI   9
KOKOMO +       CLEAR     16  10  77 W13       30.01S WCI   2
MT COMFORT *+  CLEAR     18  10  73 NW9       30.01S WCI   6
SHELBYVILLE    CLEAR     20   7  57 W7        30.02S WCI  11

$$

INZ033-034-041-042-049-050-058-059-130400-
EAST CENTRAL INDIANA

CITY           SKY/WX    TMP DP  RH WIND       PRES   REMARKS
MUNCIE         CLEAR     16   7  67 W5        29.99F WCI   9
RICHMOND +     CLEAR     16   9  73 W5        29.98F WCI   9

$$

INZ060-061-067>069-081>083-085>088-130400-
SOUTHWEST INDIANA

CITY           SKY/WX    TMP DP  RH WIND       PRES   REMARKS
EVANSVILLE     CLEAR     24  11  57 W5        30.11F WCI  18
HUNTINGBURG +  PTCLDY    23  12  62 W6        30.09F WCI  16

$$

INZ062-063-066-070>080-084-089>092-130400-
SOUTH CENTRAL AND SOUTHEAST INDIANA

CITY           SKY/WX    TMP DP  RH WIND       PRES   REMARKS
BLOOMINGTON    CLEAR     21   5  50 W5        30.04F WCI  15
SEYMOUR +      CLEAR     21   9  58 W5        30.05F WCI  15

$$





USA.gov is the U.S. government's official web portal to all federal, state and local government web resources and services.